Regional Weather Roundup
Issued by NWS Northern Indiana

Home | Current Version | Previous Version | Graphics & Text | Print | Product List | Glossary On
Versions: 1 2 3 4 5 6 7 8 9 10 11 12 13 14 15 16 17 18 19 20 21 22 23 24 25 26 27 28 29 30 31 32 33 34 35 36 37 38 39 40 41 42 43 44 45 46 47 48 49 50
000
ASUS43 KIWX 051110
RWRIWX

KIWX WEATHER ROUNDUP
NATIONAL WEATHER SERVICE NORTHERN INDIANA
700 AM EDT TUE MAY 05 2015

NOTE: "FAIR" INDICATES FEW OR NO CLOUDS BELOW 12,000 FEET WITH NO
SIGNIFICANT WEATHER AND/OR OBSTRUCTIONS TO VISIBILITY.

* THESE STATIONS ARE NOT UNDER NWS QUALITY CONTROL. THEY ALSO MAY NOT
  REPORT WEATHER SUCH AS PRECIPITATION OR FOG.

INZ001>027-051200-
NORTHERN INDIANA

CITY           SKY/WX    TMP DP  RH WIND       PRES   REMARKS
GARY*          RAIN      50 N/A N/A NE3       30.22R
VALPARAISO     LGT RAIN  59  58  96 N3        30.20R VSB 1
MICHIGAN CITY* HVY RAIN  55  55 100 CALM      30.21R
LAPORTE*       RAIN      60  60 100 CALM      30.20R
KNOX*          CLOUDY    59  55  88 CALM      30.18S VSB 1
SOUTH BEND     LGT RAIN  59  57  93 NE6       30.21R FOG
ELKHART*       RAIN      59  57  94 NE5       30.21
GOSHEN         LGT RAIN  61  59  93 SE7       30.20S FOG
MONTICELLO*    CLOUDY    60  60 100 E5        30.18R FOG
LOGANSPORT*    CLOUDY    61  59  94 CALM      30.20R FOG
ROCHESTER*     CLOUDY    63 N/A N/A CALM      30.20R FOG
WARSAW*        CLOUDY    59  59 100 E3        30.20S FOG
ANGOLA*        CLOUDY    57  57 100 E5        30.22S
FORT WAYNE     RAIN      60  59  96 NE5       30.21S FOG
HUNTINGTON*    CLOUDY    60  59  97 CALM      30.20R FOG
PERU/GRISSOM   CLOUDY    62  60  94 SE6       30.18S
MARION*        CLOUDY    60  59  96 SE7       30.21S

$$
INZ028>050-051200-
CENTRAL INDIANA

CITY           SKY/WX    TMP DP  RH WIND       PRES   REMARKS
LAFAYETTE      CLOUDY    59  59 100 E5        30.17S FOG
KOKOMO*        CLOUDY    61  61 100 SE8       30.19S
MUNCIE*        CLOUDY    61  59  93 E5        30.21S
INDIANAPOLIS   CLOUDY    63  56  78 S7        30.19R

$$
MIZ043>046-050>051-056>058-064>065-071>073-077>080-051200-
SOUTHWEST LOWER MICHIGAN

CITY           SKY/WX    TMP DP  RH WIND       PRES   REMARKS
BATTLE CREEK   CLOUDY    57  45  64 E8        30.24R
BENTON HARBOR  RAIN      52  51  97 NE5       30.21S FOG
COLDWATER*     CLOUDY    57  53  84 SE6       30.23R
HILLSDALE*     CLOUDY    58  44  60 E6        30.25R
HOLLAND        CLOUDY    56  44  64 E8        30.24R
GRAND RAPIDS   LGT RAIN  55  42  61 E7        30.26R
KALAMAZOO      LGT RAIN  56  45  66 CALM      30.23R
STURGIS*       HVY RAIN  55  55 100 CALM      30.21F
THREE RIVERS*  HVY RAIN  54  50  87 E5        30.22S

$$
OHZ001>008-015>018-024>025-051200-
NORTHWEST OHIO

CITY           SKY/WX    TMP DP  RH WIND       PRES   REMARKS
WAUSEON*       CLOUDY    57  55  94 NE8       30.24S
DEFIANCE       LGT RAIN  60  59  96 S3        30.24R FOG
FINDLAY        PTCLDY    60  57  89 CALM      30.22R FOG
TOLEDO EXPRESS CLOUDY    58  53  84 E7        30.24R
TOLEDO METCALF CLOUDY    58  55  90 NE7       30.25R FOG
LIMA           LGT RAIN  61  59  93 SW6       30.24R FOG

$$
AND FOR LAKE MICHIGAN COASTAL AND OPEN LAKE BUOY OBSERVATIONS

STATION/POSITION TEMP    WIND        PRES    VSBY  WAVE
                 AIR SEA DIR/SP/G                  HT/PER
                 (F)     (DEG/KT/KT) (MB)    (MI)  (FT/S)
CALUMET HARBOR    50     350/  6/  8   N/A
MICHIGAN CITY     50     330/  7/  8   N/A
BURNS HARBOR      48     310/  8/ 10 1023.7R
SAINT JOSEPH      53      10/  2/  3 1023.0F
4 MI NW BRIDGMAN  53 49   40/  6/  8   N/A           1
MICHIGAN CITY     47 50  360/  6/  8   N/A           1

$$
&&



USA.gov is the U.S. government's official web portal to all federal, state and local government web resources and services.